• In Hungary
  • List of Countries
  • For 7 days
  • Water Temperature
  • Satellite Maps
  • Weather Map
  • News
  • Weather Widgets
  • user-avatar
    Login

    Hourly Weather Nagoya

    Today, 26 September, Wednesday

    Time Temperature Precipitation Wind Pressure Humidity
    00:00 +22°C° 0 mm 1 mps 750 mmHg 78%
    01:00 +21°C° 0 mm 2 mps 751 mmHg 78%
    02:00 +21°C° 0 mm 2 mps 751 mmHg 78%
    03:00 +20°C° 0 mm 2 mps 751 mmHg 77%
    04:00 +20°C° 0 mm 2 mps 751 mmHg 77%
    05:00 +20°C° 0 mm 2 mps 751 mmHg 78%
    06:00 +20°C° 0 mm 2 mps 751 mmHg 78%
    07:00 +21°C° 0 mm 2 mps 751 mmHg 71%
    08:00 +24°C° 0 mm 1 mps 751 mmHg 65%
    09:00 +25°C° 0 mm 1 mps 751 mmHg 59%
    10:00 +26°C° 0.1 mm 1 mps 751 mmHg 59%
    11:00 +26°C° 0.1 mm 1 mps 751 mmHg 59%
    12:00 +26°C° 0.1 mm 1 mps 750 mmHg 58%
    13:00 +26°C° 1.1 mm 1 mps 750 mmHg 62%
    14:00 +25°C° 1.1 mm 2 mps 750 mmHg 66%
    15:00 +23°C° 0 mm 2 mps 750 mmHg 75%
    16:00 +23°C° 6.2 mm 2 mps 750 mmHg 80%
    17:00 +21°C° 6.2 mm 2 mps 750 mmHg 84%
    18:00 +21°C° 6.2 mm 2 mps 750 mmHg 88%
    19:00 +22°C° 4.7 mm 1 mps 750 mmHg 88%
    20:00 +22°C° 4.7 mm 1 mps 750 mmHg 89%
    21:00 +22°C° 4.7 mm 1 mps 750 mmHg 89%
    22:00 +22°C° 3.5 mm 1 mps 750 mmHg 89%
    23:00 +22°C° 3.5 mm 1 mps 750 mmHg 89%

    Tomorrow, 27 September, Thursday

    Time Temperature Precipitation Wind Pressure Humidity
    00:00 +21°C° 3.5 mm 1 mps 750 mmHg 90%
    01:00 +21°C° 2.5 mm 1 mps 749 mmHg 88%
    02:00 +21°C° 2.5 mm 1 mps 749 mmHg 87%
    03:00 +21°C° 2.5 mm 1 mps 749 mmHg 85%
    04:00 +21°C° 2 mm 1 mps 749 mmHg 85%
    05:00 +21°C° 2 mm 1 mps 749 mmHg 85%
    06:00 +21°C° 2 mm 1 mps 749 mmHg 85%
    07:00 +21°C° 0.8 mm 1 mps 749 mmHg 82%
    08:00 +21°C° 0.8 mm 1 mps 749 mmHg 78%
    09:00 +22°C° 0.8 mm 1 mps 749 mmHg 75%
    10:00 +23°C° 0 mm 1 mps 749 mmHg 70%
    11:00 +24°C° 0 mm 1 mps 749 mmHg 64%
    12:00 +25°C° 0 mm 1 mps 749 mmHg 58%
    13:00 +25°C° 0 mm 1 mps 749 mmHg 57%
    14:00 +26°C° 0 mm 1 mps 748 mmHg 56%
    15:00 +26°C° 0 mm 2 mps 748 mmHg 56%
    16:00 +25°C° 0 mm 2 mps 749 mmHg 60%
    17:00 +24°C° 0 mm 2 mps 749 mmHg 64%
    18:00 +23°C° 0 mm 2 mps 749 mmHg 68%
    19:00 +23°C° 0 mm 2 mps 750 mmHg 71%
    20:00 +21°C° 0 mm 2 mps 750 mmHg 73%
    21:00 +21°C° 0 mm 2 mps 750 mmHg 76%
    22:00 +20°C° 0 mm 2 mps 750 mmHg 77%
    23:00 +20°C° 0 mm 2 mps 751 mmHg 78%

    Day after tomorrow, 28 September, Friday

    Time Temperature Precipitation Wind Pressure Humidity
    00:00 +20°C° 0 mm 2 mps 751 mmHg 79%
    01:00 +19°C° 0 mm 2 mps 751 mmHg 79%
    02:00 +19°C° 0 mm 2 mps 751 mmHg 80%
    03:00 +19°C° 0 mm 2 mps 751 mmHg 80%
    04:00 +19°C° 0 mm 2 mps 751 mmHg 81%
    05:00 +18°C° 0 mm 2 mps 751 mmHg 81%
    06:00 +18°C° 0 mm 2 mps 751 mmHg 81%
    07:00 +20°C° 0 mm 2 mps 752 mmHg 73%
    08:00 +21°C° 0 mm 2 mps 752 mmHg 65%
    09:00 +24°C° 0 mm 2 mps 752 mmHg 57%
    10:00 +25°C° 0 mm 2 mps 752 mmHg 50%
    11:00 +27°C° 0 mm 1 mps 752 mmHg 43%
    12:00 +28°C° 0 mm 1 mps 752 mmHg 37%
    13:00 +29°C° 0 mm 1 mps 751 mmHg 36%
    14:00 +29°C° 0 mm 1 mps 751 mmHg 36%
    15:00 +29°C° 0 mm 1 mps 751 mmHg 35%
    16:00 +27°C° 0 mm 1 mps 751 mmHg 42%
    17:00 +26°C° 0 mm 2 mps 752 mmHg 48%
    18:00 +25°C° 0 mm 2 mps 752 mmHg 55%
    19:00 +24°C° 0 mm 2 mps 752 mmHg 60%
    20:00 +23°C° 0 mm 2 mps 753 mmHg 66%
    21:00 +21°C° 0 mm 2 mps 753 mmHg 71%
    22:00 +21°C° 0 mm 2 mps 753 mmHg 73%
    23:00 +21°C° 0 mm 2 mps 753 mmHg 75%

    29 September, Saturday

    Time Temperature Precipitation Wind Pressure Humidity
    00:00 +21°C° 0 mm 2 mps 753 mmHg 77%
    01:00 +21°C° 0 mm 2 mps 752 mmHg 77%
    02:00 +21°C° 0 mm 2 mps 752 mmHg 78%
    03:00 +21°C° 0 mm 2 mps 752 mmHg 78%
    04:00 +21°C° 0.2 mm 2 mps 752 mmHg 78%
    05:00 +21°C° 0.2 mm 2 mps 752 mmHg 78%
    06:00 +21°C° 0.2 mm 2 mps 752 mmHg 79%
    07:00 +21°C° 1.1 mm 2 mps 752 mmHg 79%
    08:00 +21°C° 1.1 mm 2 mps 752 mmHg 79%
    09:00 +21°C° 1.1 mm 2 mps 752 mmHg 79%
    10:00 +21°C° 3.1 mm 2 mps 752 mmHg 80%
    11:00 +20°C° 3.1 mm 3 mps 751 mmHg 82%
    12:00 +20°C° 3.1 mm 3 mps 751 mmHg 84%
    13:00 +20°C° 3.3 mm 3 mps 750 mmHg 85%
    14:00 +20°C° 3.3 mm 3 mps 749 mmHg 85%
    15:00 +20°C° 3.3 mm 3 mps 749 mmHg 86%
    16:00 +20°C° 4.4 mm 3 mps 748 mmHg 88%
    17:00 +20°C° 4.4 mm 3 mps 748 mmHg 90%
    18:00 +20°C° 4.4 mm 2 mps 748 mmHg 91%
    19:00 +20°C° 3.1 mm 3 mps 748 mmHg 91%
    20:00 +21°C° 3.1 mm 3 mps 748 mmHg 91%
    21:00 +21°C° 3.1 mm 3 mps 748 mmHg 91%
    22:00 +21°C° 1.5 mm 3 mps 747 mmHg 92%
    23:00 +22°C° 1.5 mm 3 mps 747 mmHg 92%

    30 September, Sunday

    Time Temperature Precipitation Wind Pressure Humidity
    00:00 +22°C° 1.5 mm 3 mps 746 mmHg 93%
    01:00 +23°C° 0.8 mm 2 mps 746 mmHg 93%
    02:00 +23°C° 0.8 mm 2 mps 746 mmHg 94%
    03:00 +24°C° 0.8 mm 2 mps 745 mmHg 94%
    04:00 +24°C° 0.8 mm 2 mps 745 mmHg 94%
    05:00 +24°C° 0.8 mm 2 mps 745 mmHg 94%
    06:00 +24°C° 0.8 mm 2 mps 745 mmHg 94%
    07:00 +25°C° 0.2 mm 2 mps 745 mmHg 91%
    08:00 +26°C° 0.2 mm 3 mps 744 mmHg 87%
    09:00 +27°C° 0.2 mm 3 mps 743 mmHg 83%
    10:00 +27°C° 0.4 mm 4 mps 743 mmHg 80%
    11:00 +28°C° 0.4 mm 4 mps 742 mmHg 78%
    12:00 +28°C° 0.4 mm 5 mps 741 mmHg 75%
    13:00 +28°C° 0.6 mm 6 mps 740 mmHg 77%
    14:00 +28°C° 0.6 mm 7 mps 739 mmHg 79%
    15:00 +27°C° 0.6 mm 7 mps 738 mmHg 81%
    16:00 +27°C° 2.4 mm 10 mps 734 mmHg 82%
    17:00 +27°C° 2.4 mm 12 mps 731 mmHg 83%
    18:00 +27°C° 2.4 mm 15 mps 728 mmHg 83%
    19:00 +27°C° 12.2 mm 17 mps 725 mmHg 81%
    20:00 +27°C° 12.2 mm 19 mps 723 mmHg 79%
    21:00 +27°C° 12.2 mm 20 mps 720 mmHg 77%
    22:00 +27°C° 2.7 mm 16 mps 725 mmHg 77%
    23:00 +26°C° 2.7 mm 12 mps 730 mmHg 77%

    1 October, Monday

    Time Temperature Precipitation Wind Pressure Humidity
    00:00 +24°C° 2.7 mm 8 mps 734 mmHg 77%
    01:00 +23°C° 0.2 mm 7 mps 736 mmHg 77%
    02:00 +23°C° 0.2 mm 6 mps 737 mmHg 76%
    03:00 +22°C° 0.2 mm 5 mps 739 mmHg 76%
    04:00 +21°C° 0 mm 5 mps 740 mmHg 73%
    05:00 +20°C° 0 mm 5 mps 741 mmHg 70%
    06:00 +20°C° 0 mm 4 mps 742 mmHg 66%
    07:00 +20°C° 0 mm 5 mps 742 mmHg 61%
    08:00 +21°C° 0 mm 5 mps 743 mmHg 55%
    09:00 +22°C° 0 mm 5 mps 744 mmHg 49%
    10:00 +23°C° 0 mm 5 mps 744 mmHg 47%
    11:00 +23°C° 0 mm 5 mps 744 mmHg 45%
    12:00 +25°C° 0 mm 5 mps 744 mmHg 43%
    13:00 +25°C° 0 mm 5 mps 744 mmHg 44%
    14:00 +25°C° 0 mm 5 mps 744 mmHg 44%
    15:00 +25°C° 0 mm 5 mps 744 mmHg 45%
    16:00 +23°C° 0 mm 4 mps 745 mmHg 49%
    17:00 +22°C° 0 mm 4 mps 746 mmHg 53%
    18:00 +21°C° 0 mm 3 mps 746 mmHg 57%
    19:00 +21°C° 0 mm 3 mps 747 mmHg 58%
    20:00 +20°C° 0 mm 2 mps 747 mmHg 60%
    21:00 +20°C° 0 mm 2 mps 748 mmHg 61%
    22:00 +19°C° 0 mm 2 mps 748 mmHg 62%
    23:00 +19°C° 0 mm 2 mps 748 mmHg 64%
    Show more